Regional Weather Roundup
Issued by NWS

Home | Current Version | Previous Version | Graphics & Text | Print | Product List | Glossary On
Versions: 1 2 3 4 5 6 7 8 9 10 11 12 13 14 15 16 17 18 19 20 21 22 23 24 25 26 27 28 29 30 31 32 33 34 35 36 37 38 39 40 41 42 43 44 45 46 47 48 49 50
000
ASUS43 KOAX 210710
RWRNE

WEATHER ROUNDUP FOR NEBRASKA
NATIONAL WEATHER SERVICE OMAHA NE
200 AM CDT MON AUG 21 2017

NOTES: SATELLITE DATA IS BEING USED TO AUGMENT CLOUD COVER ABOVE
       12000 FEET.
       "FAIR" INDICATES FEW OR NO CLOUDS BELOW 12,000 FEET WITH NO
       SIGNIFICANT WEATHER AND/OR OBSTRUCTIONS TO VISIBILITY.


NEZ001>004-019>022-054>056-210800-
NEBRASKA PANHANDLE

CITY           SKY/WX    TMP DP  RH WIND       PRES   REMARKS
SCOTTSBLUFF    CLEAR     67  63  87 E7        30.04R
ALLIANCE       PTCLDY    63  62  97 SE8       30.04R
CHADRON        MOCLDY    68  59  73 E10       30.01F
GORDON         CLOUDY    64  58  82 E3        30.04S
KIMBALL        CLOUDY    64  64  97 S5        30.10S
SIDNEY         CLEAR     63  61  93 CALM      30.06F
$$

NEZ057>060-069>072-079>082-210800-
SOUTHWEST NEBRASKA

CITY           SKY/WX    TMP DP  RH WIND       PRES   REMARKS
NORTH PLATTE   CLOUDY    74  73  97 E9        29.98F
IMPERIAL       CLOUDY    68  66  93 SE6       29.99F
LEXINGTON      FOG       70  69  95 CALM      29.97S VSB 3/4
MCCOOK         PTCLDY    76  65  68 SW8       29.96S
OGALLALA       MOCLDY    72  70  93 E5        30.00F
$$

NEZ005>010-023>029-035>040-094-210800-
NORTH CENTRAL NEBRASKA

CITY           SKY/WX    TMP DP  RH WIND       PRES   REMARKS
VALENTINE      CLEAR     66  61  84 NE5       30.01S
AINSWORTH      MOCLDY    66  66 100 E3        30.00F
BROKEN BOW     PTCLDY    72  69  90 E5        29.97F
O`NEILL        CLOUDY    69  69 100 NE3       29.97F
ORD            CLOUDY    70  67  90 CALM      29.94F
THEDFORD       CLOUDY    67  67  97 CALM      30.02S FOG
$$

NEZ041-046>049-061>064-073>077-083>087-210800-
SOUTH CENTRAL NEBRASKA

CITY           SKY/WX    TMP DP  RH WIND       PRES   REMARKS
GRAND ISLAND   PTCLDY    73  72  96 S6        29.94F
AURORA         PTCLDY    76  73  89 S12       29.93F
HASTINGS       CLOUDY    76  68  76 S7        29.96S
HEBRON         CLEAR     79  70  73 S12       29.95F
HOLDREGE       CLOUDY    73  65  75 S5        29.97S
KEARNEY        CLOUDY    74  69  85 S9        29.96S
YORK           PTCLDY    77  73  88 S12G17    29.93F
$$

NEZ011>018-030>034-042>045-210800-
NORTHEAST NEBRASKA

CITY           SKY/WX    TMP DP  RH WIND       PRES   REMARKS
NORFOLK        CLEAR     70  68  93 E3        29.93F
ALBION         CLOUDY    70  69  96 CALM      29.94F
BLAIR          CLOUDY    73  68  84 E15       29.98R
COLUMBUS       PTCLDY    68  67  96 CALM      29.91F FOG
FREMONT        MOCLDY    73  70  90 E6G18     29.94R
TEKAMAH        CLOUDY    72  64  76 E16G25    29.97R
WAYNE          CLOUDY    73  70  91 SE8       29.96R
$$

NEZ050>053-065>068-078-088>093-210800-
SOUTHEAST NEBRASKA

CITY           SKY/WX    TMP DP  RH WIND       PRES   REMARKS
LINCOLN        MOCLDY    80  72  76 S14       29.91F
OMAHA EPPLEY   CLOUDY    74  67  78 NE10      29.98R
BEATRICE       CLEAR     81  73  76 S15G23    29.93F
FALLS CITY     CLEAR     80  75  84 S14       29.93F
NEBRASKA CITY  PTCLDY    76  76 100 SW10      29.93S
PLATTSMOUTH    CLEAR     73  71  94 SE8       29.93R
$$

NEZ044-045-051>053-067-210800-
OMAHA AREA

CITY           SKY/WX    TMP DP  RH WIND       PRES   REMARKS
OMAHA EPPLEY   CLOUDY    74  67  78 NE10      29.98R
BLAIR          CLOUDY    73  68  84 E15       29.98R
FREMONT        MOCLDY    73  70  90 E6G18     29.94R
MILLARD        PTCLDY    75  72  89 NE3       29.95R
OFFUTT AFB     MOCLDY    71  68  89 NE10      29.95R
PLATTSMOUTH    CLEAR     73  71  94 SE8       29.93R
WAHOO          FAIR      70  69  96 E3        29.92S
$$




USA.gov is the U.S. government's official web portal to all federal, state and local government web resources and services.